www.pogodaiklimat.ru

Погода и климат >> Архив погоды >> Россия >> Калужская область >> Спас-Деменск


ПОГОДА в Спас-Деменске

  • Прогноз погоды в Спас-Деменске
  • Монитор погоды в Спас-Деменске

АРХИВ ПОГОДЫ в Спас-Деменске

Время (UTC), дата Ветер
(напр.,м/с)
 
Видим.   Явления Облачность Т
(С)
Тd
(С)
f
(%)
Тe
(С)
Тes
(С)
Комфортность P
(гПа)
Po
(гПа)
Тmin
(С)
Tmax
(С)
R
(мм)
R24
(мм)
S
(см)
18 10.09 штиль 0 10 км 4/0
[Ci sp]
+14.5 +12.3 87 +14 +14 1027.0 998.6 +24.7
21 10.09 штиль 0 10 км 3/0
[Ci sp]
+13.0 +11.3 89 +12 +12 1027.5 998.9
00 11.09 ЮВ 1 10 км ясно +12.6 +11.2 91 +13 +13 1028.1 999.4
03 11.09 Ю 1 9000 м дымка 3/3 600 м
[Sc]
+10.2 +9.5 95 +10 +10 1029.3 1000.3 +10.2
06 11.09 Ю 1 15 км дымка 3/0
[Ci sp]
+15.6 +10.8 73 +16 +20 1029.4 1001.0 +10.0
09 11.09 Ю 3 15 км 3/0
[Ci sp]
+24.0 +8.3 37 +25 +31 комфорт 1028.7 1001.1
12 11.09 Ю 4 15 км 3/0
[Ci sp]
+24.5 +5.1 29 +24 +28 комфорт 1028.2 1000.7
15 11.09 Ю 1 15 км 3/0
[Ci sp]
+22.8 +8.0 39 +24 +25 комфорт 1027.4 999.7 +25.2
18 11.09 штиль 0 10 км ясно +12.4 +10.2 86 +12 +12 1028.8 1000.0 +25.2
21 11.09 штиль 0 15 км ясно +9.9 +8.7 92 +9 +9 1029.0 1000.0
00 12.09 штиль 0 13 км ясно +8.2 +7.4 95 +7 +7 1028.8 999.7
03 12.09 ЮВ 1 11 км 3/0
[Ci sp]
+7.2 +6.8 97 +6 +6 1029.1 999.8 +6.9
06 12.09 ЮВ 1 15 км ясно +14.2 +9.3 72 +15 +18 1028.2 999.7 +6.9
09 12.09 Ю 3 15 км ясно +23.6 +7.7 36 +24 +31 комфорт 1026.9 999.3
12 12.09 ЮЗ 4 15 км 3/0
[Ci sp]
+25.1 +5.4 28 +25 +28 комфорт 1025.6 998.2
15 12.09 Ю 1 15 км 3/0
[Ci sp]
+23.0 +8.1 38 +24 +25 комфорт 1024.5 996.9 +25.4
18 12.09 штиль 0 15 км 3/0
[Ci sp]
+12.3 +9.9 85 +12 +12 1025.3 996.6 +25.4
21 12.09 штиль 0 15 км 3/0
[Ci sp]
+9.8 +8.8 93 +9 +9 1024.7 995.8
00 13.09 штиль 0 15 км 3/0
[Ci sp]
+7.8 +7.1 95 +7 +7 1024.2 995.1
03 13.09 Ю 1 15 км 3/0
[Ci sp]
+6.3 +5.8 97 +5 +5 1023.5 994.3 +6.3
06 13.09 З 1 15 км 6/0
[Ci sp]
+14.7 +9.9 73 +15 +18 1022.7 994.4 +6.3
09 13.09 З 3 15 км 8/0
[Ci sp]
+20.8 +10.7 52 +23 +29 комфорт 1021.4 993.7
12 13.09 З 4 15 км 8/5 1000 м
[Cu med, cong Ci sp]
+22.0 +8.8 43 +23 +25 комфорт 1019.6 992.1
15 13.09 З 1 15 км 8/8 600 м
[Sc]
+19.5 +10.0 54 +22 +22 комфорт 1017.8 990.1 +22.4
18 13.09 Ю 1 10 км ясно +13.9 +10.8 82 +14 +14 1017.6 989.4 +22.4
21 13.09 ЮЗ 3 10 км 10/10 600 м
[Sc]
+15.5 +9.9 69 +15 +15 1014.7 986.7
00 14.09 З 4 10 км 10/0 600 м
[]
+15.4 +10.6 73 +14 +14 1013.8 985.8
03 14.09 З 3
{10}
12 км 8/4 600 м
[Sc Ci sp]
+11.4 +7.6 77 +10 +10 1016.3 987.9 +11.4
06 14.09 З 3 15 км 8/8 600 м
[Sc]
+11.9 +7.6 75 +10 +11 1017.7 989.2 +10.7
09 14.09 З 4 15 км 8/8 600 м
[Sc]
+14.1 +4.5 52 +13 +14 1019.1 990.8
12 14.09 З 4
{10}
15 км 8/8 600 м
[Sc]
+15.8 +2.5 41 +15 +16 1019.1 990.9
15 14.09 З 2 15 км в посл. час ливневой дождь 6/6 300 м
[Cb cap]
+12.0 +5.3 64 +11 +11 1019.8 991.3 +16.1 0.3
18 14.09 ЮЗ 2 10 км {ливн. осадки} 3/3 600 м
[Sc]
+7.3 +5.6 89 +5 +5 1020.5 991.4 +16.1 0.6
21 14.09 З 1 10 км 4/4 600 м
[Sc]
+7.2 +5.2 87 +6 +6 1020.3 991.3
00 15.09 З 2 10 км ясно +6.1 +4.7 91 +4 +4 1020.4 991.3
03 15.09 ЮЗ 1 13 км ясно +4.3 +3.7 96 +3 +3 1020.7 991.4 +4.3
06 15.09 З 2 15 км 4/3 600 м
[Sc Ci sp]
+8.1 +5.8 85 +6 +8 1020.2 991.3 +3.7
09 15.09 ЮЗ 3 15 км 8/6 600 м
[Sc Ci sp]
+13.2 +4.5 56 +12 +14 1018.3 989.9
12 15.09 ЮЗ 3 15 км 9/6 600 м
[Sc Ci sp]
+13.7 +3.3 49 +13 +14 1015.6 987.4
15 15.09 ЮЗ 2 15 км слаб. дождь 10/10 600 м
[Sc]
+10.9 +7.8 81 +10 +10 1013.2 984.7 +15.0 0.3
18 15.09 Ю 3 13 км в посл. час дождь 10/10 600 м
[Sc]
+10.3 +7.5 83 +8 +8 1009.5 981.1 +15.0 1
21 15.09 ЮЗ 3 13 км слаб. дождь 10/10 600 м
[Sc]
+10.9 +6.9 76 +9 +9 1007.1 978.9
00 16.09 ЮЗ 4
{11}
13 км слаб. дождь 10/10 300 м
[Frnb Ns]
+9.6 +8.0 90 +7 +7 1004.6 976.3
03 16.09 ЮЗ 4 12 км слаб. дождь 10/10 300 м
[Frnb Ns]
+9.8 +8.7 93 +7 +7 1003.1 974.9 +9.6 3
06 16.09 ЮЗ 4 15 км {дождь} 8/8 600 м
[Sc]
+11.1 +9.0 87 +9 +9 1001.9 973.8 +9.6 3
09 16.09 З 4 15 км 8/8 600 м
[Sc]
+14.0 +6.3 60 +13 +14 1001.1 973.3
12 16.09 З 4
{12}
15 км 8/8 600 м
[Sc]
+15.6 +6.8 56 +15 +15 1001.2 973.5
15 16.09 ЮЗ 3
{13}
15 км {ливн. осадки} 6/6 600 м
[Sc]
+12.9 +7.4 69 +12 +12 1002.0 974.1 +16.2 1
18 16.09 ЮЗ 2 10 км в посл. час ливневой дождь 4/4 300 м
[Cb cap]
+9.7 +7.3 85 +8 +8 1002.8 974.5 +16.2 0.8
21 16.09 ЮЗ 3 10 км 6/0 2000 м
[Ac trans]
+9.5 +7.0 84 +7 +7 1002.2 974.0
00 17.09 ЮЗ 2 10 км 4/0 2000 м
[Ac trans Ci sp]
+8.5 +6.4 87 +7 +7 1001.5 973.1
03 17.09 З 2 10 км 6/4 600 м
[Sc Ac trans]
+7.3 +5.5 88 +5 +5 1001.4 972.9 +7.3 0.8
06 17.09 З 3 15 км 8/8 600 м
[Sc]
+8.8 +5.5 80 +6 +7 1001.4 973.1 +7.0
09 17.09 З 4-10
{10}
15 км в посл. час ливневой дождь 8/8 300 м
[Cb cap]
+11.0 +4.9 66 +9 +10 1001.2 973.1
12 17.09 З 3
{12}
15 км в посл. час ливневой дождь 8/8 300 м
[Cb cap]
+11.0 +5.9 71 +9 +10 1001.4 973.3
15 17.09 З 2
{10}
15 км в посл. час ливневой дождь 6/6 300 м
[Cb cap]
+11.4 +4.6 63 +10 +11 1001.2 973.1 +12.8 0.5

 

Местоположение метеостанции Спас-Деменск (Калужская область, Россия): широта 54.42 долгота 34.02 высота над уровнем моря 238 м.

В архиве по умолчанию представлена погода в Спас-Деменске за последнюю неделю. Архивные данные за месяц целиком и за предыдущие месяцы, начиная с января 2011 года, Вы можете получить, выбрав интересующий диапазон дат из раскрывающегося списка и нажав кнопку "Ввод!".


*Определитесь, кто Вы:
робот инопланетянин человек

Внимание! Время в таблицах - всемирное. Для получения местного времени необходимо прибавить поправку, которая равна 3 ч.

Смотрите также архив погоды в соседних городах и на ближайших метеорологических станциях:

Погода в Ельне (Смоленская область, Россия) (57 км)
Погода в Мосальске (Калужская область, Россия) (65 км)
Погода в Вязьме (Смоленская область, Россия) (87 км)
Погода в Жиздре (Калужская область, Россия) (88 км)
Погода в Сафоново (Смоленская область, Россия) (91 км)
Погода в Сухиничах (Калужская область, Россия) (93 км)
Погода в Рославле (Смоленская область, Россия) (95 км)
Погода в Жуковке (Брянская область, Россия) (101 км)
Погода в Починке (Смоленская область, Россия) (103 км)
Погода в Смоленске (Смоленская область, Россия) (131 км)

Пояснения к столбцам:

Ветер - указаны скорость ветра в м/с - средняя за 10 мин, порывы в срок и между сроками (в фигурных скобках) и направление, откуда дует ветер: С - северный, СВ - северо-восточный, В - восточный, ЮВ - юго-восточный, Ю - южный, ЮЗ - юго-западный, З - западный, СЗ - северо-западный.
Видимость - горизонтальная дальность видимости в метрах или километрах. При видимости от 1 до 10 км при отсутствии осадков обычно наблюдается дымка, при ухудшении видимости до 1 км и менее - туман. В сухую погоду видимость может ухудшаться дымом, пылью или мглою.
Явления - указаны атмосферные явления, наблюдавшиеся в срок или в последний час перед сроком; фигурными скобками обозначены явления, наблюдавшиеся между сроками (за 1-3 часа до срока); квадратными скобками обозначены град или гололедные отложения с указанием их диаметра в мм.
Облачность - указаны через наклонную черту общая и нижняя облачность в баллах и высота нижней границы облаков в метрах; квадратными скобками обозначены формы облаков: Ci - перистые, Cs - перисто-слоистые, Cc - перисто-кучевые, Ac - высококучевые, As - высокослоистые, Sc - слоисто-кучевые, Ns - слоисто-дождевые, Cu - кучевые, Cb - кучево-дождевые. Подробнее классификацию облаков см. в Атласе облаков (PDF).
T - Температура воздуха - температура, измеренная на высоте 2 м над землей.
Td - Температура точки росы - температура, при понижении до которой содержащийся в воздухе водяной пар достигнет насыщения.
f - Относительная влажность воздуха - влажноcть воздуха, измеренная на высоте 2 м над землей.
Te - Эффективная температура - температура, которую ощущает одетый по сезону человек в тени. Характеристика душности погоды. При расчете учитывается влияние влажности воздуха и скорости ветра на теплоощущения человека.
Tes - Эффективная температура на солнце - температура, которую ощущает человек, с поправкой на солнечный нагрев. Характеристика знойности погоды. Зависит от высоты солнца над горизонтом, облачности и скорости ветра. Ночью, в пасмурную погоду, а также при ветре 12 м/с и более поправка равна нулю.
P - Атмосферное давление - приведенное к уровню моря атмосферное давление.
Po - Атмосферное давление - измеренное на уровне метеостанции атмосферное давление.
Tmin - Минимальная температура - минимум температуры воздуха на высоте 2 м над землей.
Tmax - Максимальная температура - максимум температуры воздуха на высоте 2 м над землей.
R - Количество осадков - Количество выпавших осадков за период времени, мм. При наведении курсора мыши на число - период времени, за который выпало указанное количество осадков.
R24 - Количество осадков - Количество выпавших осадков за 24 часа, мм.
S - Снежный покров - Высота снежного покрова, см. При наведении курсора мыши на число - состояние снежного покрова и степень покрытия местности в баллах.